Renton, WA
on Thursday, November 15, 2012

Thursday
Previous Day Next Day
Daily Summary
 ActualAverage (KSEA)Record (KSEA)
Temperature
Mean Temperature °F / °C 46°F / 8°C  
Max Temperature 51°F / 11°C 51°F / 11°C 62°F / 16°C (2001)
Min Temperature 37°F / 3°C 40°F / 4°C 6°F / -14°C (1955)
Degree Days
Heating Degree Days 21 19  
Month to date heating degree days 268  
Since 1 July heating degree days 865  
Cooling Degree Days 0 0  
Month to date cooling degree days 0  
Year to date cooling degree days 189  
Moisture
Dew Point 39°F / 4°C   
Average Humidity 91    
Maximum Humidity 100    
Minimum Humidity 68    
Precipitation
Precipitation 0.00 in / 0.00 cm 0.23 in / 5.84 cm 1.09 in / 2.77 cm (2007)
Month to date precipitation 3.19  
Year to date precipitation 28.76  
Snow
Snow 0.00 in / 0.00 cm in / cm 0.20 in / 0.51 cm (1975)
Month to date snowfall  
Since 1 July snowfall  
Snow Depth in / cm   
Wind
Wind Speed 2 mph / 3 km/h   
Max Wind Speed 12 mph / 19 km/h   
Max Gust Speed mph / km/h   
Visibility 6 miles / 9 kilometers   
Events Fog   

Key: T is trace of precipitation, MM is missing value
Source: NWS Daily Summary
Time(PST)TemperatureDew PointHumidity Pressure Visibility Wind DirectionWind SpeedGust SpeedPrecipitationEvents Conditions
12:14 AM 39.2°F / 4.0°C 37.4°F / 3.0°C 93% 30.27 in / 1024.9 hPa 1.2 miles / 2.0 kilometers Calm Calm - N/A   Overcast
12:41 AM 39.2°F / 4.0°C 37.4°F / 3.0°C 93% 30.26 in / 1024.6 hPa 0.5 miles / 0.8 kilometers Calm Calm - N/A Fog Fog
12:53 AM 39.0°F / 3.9°C 37.9°F / 3.3°C 96% 30.28 in / 1025.2 hPa 0.2 miles / 0.4 kilometers Calm Calm - N/A Fog Fog
1:53 AM 39.0°F / 3.9°C 39.0°F / 3.9°C 100% 30.26 in / 1024.7 hPa 0.2 miles / 0.4 kilometers Calm Calm - N/A Fog Fog
2:53 AM 39.0°F / 3.9°C 39.0°F / 3.9°C 100% 30.25 in / 1024.2 hPa 0.5 miles / 0.8 kilometers Calm Calm - N/A Fog Fog
3:53 AM 39.9°F / 4.4°C 39.9°F / 4.4°C 100% 30.22 in / 1023.4 hPa 0.5 miles / 0.8 kilometers Calm Calm - N/A Fog Fog
4:14 AM 39.2°F / 4.0°C 39.2°F / 4.0°C 100% 30.21 in / 1022.9 hPa 2.0 miles / 3.2 kilometers Calm Calm - N/A   Overcast
4:23 AM 39.2°F / 4.0°C 39.2°F / 4.0°C 100% 30.20 in / 1022.6 hPa 3.0 miles / 4.8 kilometers Calm Calm - N/A   Overcast
4:53 AM 39.9°F / 4.4°C 39.9°F / 4.4°C 100% 30.21 in / 1023.0 hPa 5.0 miles / 8.0 kilometers North 3.5 mph / 5.6 km/h - N/A   Overcast
5:53 AM 39.0°F / 3.9°C 39.0°F / 3.9°C 100% 30.19 in / 1022.3 hPa 10.0 miles / 16.1 kilometers Calm Calm - N/A   Overcast
6:25 AM 37.4°F / 3.0°C 37.4°F / 3.0°C 100% 30.17 in / 1021.6 hPa 10.0 miles / 16.1 kilometers North 4.6 mph / 7.4 km/h - N/A   Scattered Clouds
6:53 AM 37.9°F / 3.3°C 37.9°F / 3.3°C 100% 30.18 in / 1021.9 hPa 10.0 miles / 16.1 kilometers Variable 3.5 mph / 5.6 km/h - N/A   Partly Cloudy
7:16 AM 37.4°F / 3.0°C 37.4°F / 3.0°C 100% 30.16 in / 1021.2 hPa 10.0 miles / 16.1 kilometers Calm Calm - N/A   Mostly Cloudy
7:53 AM 37.0°F / 2.8°C 37.0°F / 2.8°C 100% 30.17 in / 1021.4 hPa 10.0 miles / 16.1 kilometers North 4.6 mph / 7.4 km/h - N/A   Mostly Cloudy
8:08 AM 39.2°F / 4.0°C 37.4°F / 3.0°C 93% 30.14 in / 1020.5 hPa 9.0 miles / 14.5 kilometers NNW 9.2 mph / 14.8 km/h - 0.00 in / 0.0 cm   Scattered Clouds
8:53 AM 39.9°F / 4.4°C 37.9°F / 3.3°C 93% 30.14 in / 1020.7 hPa 10.0 miles / 16.1 kilometers NW 10.4 mph / 16.7 km/h - 0.00 in / 0.0 cm   Clear
9:39 AM 39.2°F / 4.0°C 37.4°F / 3.0°C 93% 30.11 in / 1019.5 hPa 10.0 miles / 16.1 kilometers NW 11.5 mph / 18.5 km/h - N/A   Partly Cloudy
9:53 AM 41.0°F / 5.0°C 37.9°F / 3.3°C 89% 30.12 in / 1020.0 hPa 10.0 miles / 16.1 kilometers NW 10.4 mph / 16.7 km/h - N/A   Scattered Clouds
10:53 AM 44.1°F / 6.7°C 39.9°F / 4.4°C 85% 30.10 in / 1019.2 hPa 10.0 miles / 16.1 kilometers NW 4.6 mph / 7.4 km/h - N/A   Scattered Clouds
11:53 AM 46.0°F / 7.8°C 39.9°F / 4.4°C 79% 30.06 in / 1018.0 hPa 10.0 miles / 16.1 kilometers Calm Calm - N/A   Clear
12:53 PM 48.0°F / 8.9°C 41.0°F / 5.0°C 77% 30.04 in / 1017.3 hPa 10.0 miles / 16.1 kilometers NNW 3.5 mph / 5.6 km/h - N/A   Clear
1:53 PM 51.1°F / 10.6°C 41.0°F / 5.0°C 68% 30.03 in / 1016.8 hPa 10.0 miles / 16.1 kilometers Calm Calm - N/A   Clear
2:53 PM 51.1°F / 10.6°C 41.0°F / 5.0°C 68% 30.02 in / 1016.4 hPa 10.0 miles / 16.1 kilometers Calm Calm - N/A   Clear
3:53 PM 48.9°F / 9.4°C 42.1°F / 5.6°C 77% 30.02 in / 1016.4 hPa 10.0 miles / 16.1 kilometers South 6.9 mph / 11.1 km/h - N/A   Clear
4:53 PM 46.9°F / 8.3°C 41.0°F / 5.0°C 80% 30.01 in / 1016.2 hPa 10.0 miles / 16.1 kilometers South 3.5 mph / 5.6 km/h - N/A   Clear
5:53 PM 45.0°F / 7.2°C 39.9°F / 4.4°C 82% 30.01 in / 1016.1 hPa 8.0 miles / 12.9 kilometers Calm Calm - N/A   Partly Cloudy
6:53 PM 44.1°F / 6.7°C 39.9°F / 4.4°C 85% 30.00 in / 1015.9 hPa 7.0 miles / 11.3 kilometers Calm Calm - N/A   Clear
7:53 PM 42.1°F / 5.6°C 39.0°F / 3.9°C 89% 29.99 in / 1015.6 hPa 6.0 miles / 9.7 kilometers East 3.5 mph / 5.6 km/h - N/A   Clear
8:19 PM 42.8°F / 6.0°C 39.2°F / 4.0°C 87% 29.97 in / 1014.8 hPa 6.0 miles / 9.7 kilometers Calm Calm - N/A   Partly Cloudy
8:39 PM 42.8°F / 6.0°C 39.2°F / 4.0°C 87% 29.97 in / 1014.8 hPa 4.0 miles / 6.4 kilometers Calm Calm - N/A   Mostly Cloudy
8:46 PM 42.8°F / 6.0°C 39.2°F / 4.0°C 87% 29.96 in / 1014.4 hPa 2.5 miles / 4.0 kilometers Calm Calm - N/A   Scattered Clouds
8:53 PM 41.0°F / 5.0°C 39.0°F / 3.9°C 93% 29.98 in / 1015.2 hPa 3.0 miles / 4.8 kilometers SSE 3.5 mph / 5.6 km/h - N/A   Mostly Cloudy
9:05 PM 41.0°F / 5.0°C 39.2°F / 4.0°C 93% 29.97 in / 1014.8 hPa 4.0 miles / 6.4 kilometers Calm Calm - N/A   Scattered Clouds
9:53 PM 39.9°F / 4.4°C 37.0°F / 2.8°C 89% 29.98 in / 1015.1 hPa 6.0 miles / 9.7 kilometers ESE 3.5 mph / 5.6 km/h - N/A   Clear
10:10 PM 39.2°F / 4.0°C 37.4°F / 3.0°C 93% 29.96 in / 1014.4 hPa 5.0 miles / 8.0 kilometers Calm Calm - N/A   Scattered Clouds
10:19 PM 39.2°F / 4.0°C 37.4°F / 3.0°C 93% 29.96 in / 1014.4 hPa 2.5 miles / 4.0 kilometers Calm Calm - N/A   Mostly Cloudy
10:33 PM 39.2°F / 4.0°C 37.4°F / 3.0°C 93% 29.96 in / 1014.4 hPa 4.0 miles / 6.4 kilometers ESE 3.5 mph / 5.6 km/h - N/A   Overcast
10:53 PM 39.0°F / 3.9°C 37.0°F / 2.8°C 93% 29.98 in / 1015.0 hPa 4.0 miles / 6.4 kilometers East 4.6 mph / 7.4 km/h - N/A   Overcast
11:16 PM 39.2°F / 4.0°C 37.4°F / 3.0°C 93% 29.96 in / 1014.4 hPa 1.5 miles / 2.4 kilometers ESE 4.6 mph / 7.4 km/h - N/A   Overcast
11:27 PM 39.2°F / 4.0°C 37.4°F / 3.0°C 93% 29.95 in / 1014.1 hPa 0.8 miles / 1.2 kilometers ESE 3.5 mph / 5.6 km/h - N/A   Mist
11:53 PM 39.0°F / 3.9°C 37.0°F / 2.8°C 93% 29.97 in / 1014.7 hPa 1.5 miles / 2.4 kilometers East 4.6 mph / 7.4 km/h - N/A   Overcast
Moon Phase
Nov. 15 Nov. 20 Nov. 28 Dec. 06 Dec. 13
Sunrise:07:14 AM (PST) Moon Rise:09:21 AM (PST)11/15
Sunset:04:32 PM (PST) Moon Set:06:24 PM (PST)11/15

Copyright © 2014 The Weather Underground, Inc.